Weather History for Concord, NH

Change the Weather History Date:

Tuesday, September 27, 2011

  Actual Average Record
Temperature  
Mean Temperature 66 °F 55 °F  
Max Temperature 80 °F 68 °F 88 °F (1933)
Min Temperature 52 °F 43 °F 22 °F (1947)
Degree Days  
Heating Degree Days 0 10  
Month to date heating degree days 94 154  
Since 1 July heating degree days 101 202  
Cooling Degree Days 1 0  
Month to date cooling degree days 71 37  
Year to date cooling degree days 558 450  
Growing Degree Days 16 (Base 50)    
Moisture  
Dew Point 57 °F    
Average Humidity 76    
Maximum Humidity 100    
Minimum Humidity 52    
Precipitation  
Precipitation 0.00 in 0.13 in 1.54 in (1939)
Month to date precipitation 3.77 3.00  
Year to date precipitation 36.74 29.27  
Snow  
Snow 0.00 in 0.00 in 0.00 in (2002)
Month to date snowfall 0.0 0.0  
Since 1 July snowfall 0.0 0.0  
Since 1 September snowfall 0.0 0.0  
Snow Depth 0.00 in    
Sea Level Pressure  
Sea Level Pressure 30.02 in    
Wind  
Wind Speed 3 mph (NE)    
Max Wind Speed 10 mph    
Max Gust Speed 14 mph    
Visibility 9 miles    
Events      
T = Trace of Precipitation, MM = Missing Value Source: NWS Daily Summary

Daily Weather History Graph

Daily Weather History Graph

Search for Another Location

Airport:

Trip Planner

Search our weather history database for the weather conditions in past years. The results will help you decide how hot, cold, wet, or windy it might be!

Date:

Astronomy

Sep. 27, 2011 Rise Set
Actual Time 6:38 AM EDT 6:34 PM EDT
Civil Twilight 6:10 AM EDT 7:03 PM EDT
Nautical Twilight 5:36 AM EDT 7:36 PM EDT
Astronomical Twilight 5:03 AM EDT 8:09 PM EDT
Moon 6:50 AM EDT (9/27) 6:20 PM EDT (9/27)
Length of Visible Light 12h 53m
Length of Day
11h 56m
New Moon, 0% of the Moon is Illuminated
Sep 27
New Moon
Oct 3
First Quarter
Oct 11
Full
Oct 19
Last Quarter
Oct 26
New

Hourly Weather History & Observations

Time (EDT) Temp. Dew Point Humidity Pressure Visibility Wind Dir Wind Speed Gust Speed Precip Events Conditions
12:51 AM 59.0 °F 59.0 °F 100% 29.97 in 8.0 mi NNE 3.5 mph - N/A   Clear
1:51 AM 59.0 °F 57.9 °F 96% 29.98 in 6.0 mi Calm Calm - N/A   Clear
2:22 AM 57.2 °F 57.2 °F 100% 29.98 in 2.5 mi WNW 3.5 mph - N/A   Clear
2:31 AM 57.2 °F 57.2 °F 100% 29.98 in 7.0 mi NW 3.5 mph - N/A   Clear
2:51 AM 57.0 °F 55.9 °F 96% 29.98 in 6.0 mi Calm Calm - N/A   Clear
3:51 AM 55.0 °F 54.0 °F 96% 29.99 in 5.0 mi Calm Calm - N/A   Clear
4:51 AM 55.9 °F 55.0 °F 97% 29.99 in 7.0 mi North 3.5 mph - N/A   Clear
5:51 AM 55.0 °F 54.0 °F 96% 30.01 in 6.0 mi NW 4.6 mph - N/A   Clear
6:51 AM 53.1 °F 52.0 °F 96% 30.02 in 7.0 mi NE 3.5 mph - N/A   Clear
7:51 AM 57.0 °F 55.0 °F 93% 30.03 in 10.0 mi NNW 5.8 mph - N/A   Clear
8:51 AM 60.1 °F 55.0 °F 83% 30.03 in 10.0 mi WNW 3.5 mph - N/A   Clear
9:51 AM 66.0 °F 57.0 °F 73% 30.03 in 10.0 mi Calm Calm - N/A   Clear
10:51 AM 70.0 °F 57.9 °F 65% 30.04 in 10.0 mi WNW 3.5 mph - N/A   Partly Cloudy
11:51 AM 75.0 °F 59.0 °F 57% 30.03 in 10.0 mi ENE 3.5 mph - N/A   Clear
12:51 PM 75.9 °F 60.1 °F 58% 30.03 in 10.0 mi Calm Calm - N/A   Partly Cloudy
1:51 PM 78.1 °F 60.1 °F 54% 30.00 in 10.0 mi Calm Calm - N/A   Clear
2:51 PM 79.0 °F 59.0 °F 50% 30.00 in 10.0 mi ENE 5.8 mph - N/A   Clear
3:51 PM 78.1 °F 61.0 °F 56% 30.00 in 10.0 mi ESE 6.9 mph - N/A   Scattered Clouds
4:51 PM 75.0 °F 60.1 °F 60% 30.00 in 10.0 mi SE 8.1 mph - N/A   Clear
5:51 PM 69.1 °F 57.9 °F 68% 30.01 in 10.0 mi SE 4.6 mph - N/A   Clear
6:51 PM 66.0 °F 57.9 °F 75% 30.04 in 10.0 mi SSE 4.6 mph - N/A   Scattered Clouds
7:51 PM 64.9 °F 57.9 °F 78% 30.06 in 10.0 mi East 3.5 mph - N/A   Mostly Cloudy
8:51 PM 64.0 °F 57.9 °F 80% 30.08 in 10.0 mi Calm Calm - N/A   Overcast
9:51 PM 63.0 °F 57.9 °F 84% 30.08 in 10.0 mi Calm Calm - N/A   Overcast
10:09 PM 62.6 °F 57.2 °F 82% 30.08 in 10.0 mi Calm Calm - N/A   Overcast
10:51 PM 62.1 °F 57.9 °F 86% 30.09 in 10.0 mi Calm Calm - N/A   Overcast
11:51 PM 62.1 °F 57.9 °F 86% 30.08 in 10.0 mi NE 3.5 mph - N/A   Overcast